UTA7775 UHPP-USRO

Flight info

Callsign UTA7775
Flight time N/A
Altitude 32000
Route BAKEN4M BAKEN A812 LUMAG B927 GANPA T155 PLR G932 THN W238 TABOS W298 LUKIS LUKIS1J
Aircraft A321/M-SDE3FGHIRWY/LB1

Departure

Time 2026-04-16 10:41
Airport Yelizovo Airport (UHPP)

Arrival

Time N/A
Airport Noyabrsk Airport (USRO)
Time Latitude Longitude Altitude Speed Heading
2026-04-16 10:03 53.17194 158.42528 307 ft 0 kts 65°
2026-04-16 10:31 53.17206 158.42576 302 ft 12 kts 78°
2026-04-16 10:31 53.17158 158.42659 303 ft 10 kts 142°
2026-04-16 10:32 53.17100 158.42726 300 ft 10 kts 148°
2026-04-16 10:32 53.17043 158.42791 304 ft 10 kts 124°
2026-04-16 10:32 53.17057 158.42884 304 ft 9 kts 65°
2026-04-16 10:32 53.17088 158.42974 307 ft 9 kts 59°
2026-04-16 10:33 53.17121 158.43069 303 ft 10 kts 60°
2026-04-16 10:33 53.17155 158.43169 300 ft 10 kts 59°
2026-04-16 10:33 53.17192 158.43273 304 ft 11 kts 59°
2026-04-16 10:33 53.17231 158.43382 306 ft 11 kts 59°
2026-04-16 10:34 53.17270 158.43495 302 ft 11 kts 60°
2026-04-16 10:34 53.17311 158.43611 298 ft 12 kts 59°
2026-04-16 10:34 53.17350 158.43721 257 ft 10 kts 60°
2026-04-16 10:34 53.17382 158.43814 227 ft 9 kts 60°
2026-04-16 10:35 53.17416 158.43912 214 ft 10 kts 60°
2026-04-16 10:35 53.17451 158.44013 213 ft 10 kts 60°
2026-04-16 10:35 53.17485 158.44118 218 ft 10 kts 59°
2026-04-16 10:35 53.17526 158.44219 217 ft 11 kts 41°
2026-04-16 10:36 53.17596 158.44236 215 ft 9 kts 351°
2026-04-16 10:36 53.17621 158.44230 218 ft 3 kts 351°
2026-04-16 10:36 53.17648 158.44222 215 ft 4 kts 351°
2026-04-16 10:36 53.17681 158.44213 216 ft 5 kts 351°
2026-04-16 10:37 53.17721 158.44202 214 ft 6 kts 351°
2026-04-16 10:37 53.17734 158.44199 219 ft 0 kts 351°
2026-04-16 10:37 53.17738 158.44198 216 ft 3 kts 351°
2026-04-16 10:38 53.17799 158.44168 213 ft 12 kts 346°
2026-04-16 10:38 53.17880 158.44138 214 ft 12 kts 348°
2026-04-16 10:38 53.17967 158.44109 215 ft 13 kts 348°
2026-04-16 10:38 53.18057 158.44078 213 ft 14 kts 348°
2026-04-16 10:39 53.18155 158.44044 215 ft 15 kts 348°
2026-04-16 10:39 53.18229 158.44018 212 ft 11 kts 347°
2026-04-16 10:39 53.18309 158.44012 209 ft 12 kts 18°
2026-04-16 10:39 53.18329 158.44083 211 ft 4 kts 152°
2026-04-16 10:40 53.18310 158.44104 208 ft 3 kts 147°
2026-04-16 10:40 53.18303 158.44109 212 ft 0 kts 153°
2026-04-16 10:40 53.18180 158.44197 213 ft 58 kts 157°
2026-04-16 10:40 53.17565 158.44626 216 ft 131 kts 157°
2026-04-16 10:41 53.16535 158.45341 229 ft 187 kts 157°
2026-04-16 10:41 53.15292 158.46213 860 ft 198 kts 156°
2026-04-16 10:41 53.13949 158.47149 1196 ft 221 kts 157°
2026-04-16 10:41 53.12453 158.48196 1519 ft 242 kts 156°
2026-04-16 10:42 53.10882 158.49290 1951 ft 248 kts 157°
2026-04-16 10:42 53.09293 158.50388 2956 ft 248 kts 157°
2026-04-16 10:42 53.07688 158.51493 3844 ft 252 kts 158°
2026-04-16 10:42 53.06050 158.52612 4673 ft 258 kts 158°
2026-04-16 10:43 53.04371 158.53758 5476 ft 263 kts 158°
2026-04-16 10:43 53.02669 158.54922 6315 ft 266 kts 158°
2026-04-16 10:43 53.00944 158.56100 7132 ft 269 kts 157°
2026-04-16 10:43 52.99131 158.56907 7928 ft 273 kts 178°
2026-04-16 10:44 52.97261 158.56366 8718 ft 277 kts 203°
2026-04-16 10:44 52.95677 158.54528 9493 ft 283 kts 228°
2026-04-16 10:44 52.94691 158.51707 10226 ft 288 kts 253°
2026-04-16 10:44 52.94515 158.48453 10918 ft 291 kts 279°
2026-04-16 10:45 52.95222 158.45309 11610 ft 295 kts 305°
2026-04-16 10:45 52.96709 158.42982 12305 ft 297 kts 332°
2026-04-16 10:45 52.98658 158.41574 12604 ft 317 kts 339°
2026-04-16 10:45 53.00800 158.40237 12765 ft 339 kts 340°
2026-04-16 10:46 53.03078 158.38859 13076 ft 355 kts 340°
2026-04-16 10:46 53.05424 158.37443 13738 ft 361 kts 340°
2026-04-16 10:46 53.07792 158.36003 14409 ft 364 kts 339°
2026-04-16 10:46 53.10185 158.34531 15073 ft 368 kts 339°
2026-04-16 10:47 53.12591 158.33042 15743 ft 371 kts 339°
2026-04-16 10:47 53.15020 158.31529 16439 ft 373 kts 339°
2026-04-16 10:47 53.17459 158.29998 17128 ft 376 kts 338°
2026-04-16 10:47 53.19914 158.28453 17799 ft 379 kts 338°
2026-04-16 10:48 53.22391 158.26896 18438 ft 382 kts 338°
2026-04-16 10:48 53.24892 158.25323 19002 ft 385 kts 338°
2026-04-16 10:48 53.27408 158.23739 19559 ft 388 kts 338°
2026-04-16 10:48 53.29949 158.22136 20120 ft 391 kts 338°
2026-04-16 10:49 53.32508 158.20522 20651 ft 394 kts 339°
2026-04-16 10:49 53.35055 158.18913 21149 ft 398 kts 338°
2026-04-16 10:49 53.37682 158.17253 21628 ft 400 kts 338°
2026-04-16 10:49 53.40267 158.15622 22067 ft 403 kts 338°
2026-04-16 10:50 53.42904 158.13952 22496 ft 406 kts 338°
2026-04-16 10:50 53.45556 158.12269 22909 ft 409 kts 338°
2026-04-16 10:50 53.48223 158.10578 23327 ft 411 kts 338°
2026-04-16 10:50 53.50911 158.08872 23691 ft 414 kts 338°
2026-04-16 10:51 53.53612 158.07152 24015 ft 417 kts 339°
2026-04-16 10:51 53.56333 158.05416 24344 ft 419 kts 338°
2026-04-16 10:51 53.59071 158.03666 24677 ft 421 kts 339°
2026-04-16 10:51 53.61816 158.01910 25016 ft 423 kts 339°
2026-04-16 10:52 53.64574 158.00144 25325 ft 425 kts 338°
2026-04-16 10:52 53.67257 157.98034 25637 ft 426 kts 329°
2026-04-16 10:52 53.69842 157.95555 25951 ft 428 kts 329°
2026-04-16 10:52 53.72441 157.93059 26262 ft 431 kts 329°
2026-04-16 10:53 53.75049 157.90559 26565 ft 432 kts 330°
2026-04-16 10:53 53.77644 157.88072 26863 ft 434 kts 330°
2026-04-16 10:53 53.80275 157.85540 27174 ft 436 kts 330°
2026-04-16 10:53 53.82914 157.82980 27432 ft 439 kts 330°
2026-04-16 10:54 53.85573 157.80385 27718 ft 440 kts 330°
2026-04-16 10:54 53.88229 157.77779 27988 ft 442 kts 329°
2026-04-16 10:54 53.90895 157.75156 28257 ft 444 kts 329°
2026-04-16 10:54 53.93573 157.72520 28516 ft 446 kts 329°
2026-04-16 10:55 53.96268 157.69869 28766 ft 448 kts 330°
2026-04-16 10:55 53.98974 157.67208 29037 ft 450 kts 330°
2026-04-16 10:55 54.01690 157.64535 29279 ft 452 kts 330°
2026-04-16 10:55 54.04421 157.61842 29552 ft 454 kts 330°
2026-04-16 10:56 54.07165 157.59133 29836 ft 456 kts 330°
2026-04-16 10:56 54.08980 157.57337 30070 ft 455 kts 330°
2026-04-16 10:56 54.11715 157.54626 30363 ft 455 kts 330°
2026-04-16 10:56 54.15335 157.51048 30721 ft 454 kts 330°
2026-04-16 10:57 54.18071 157.48348 30980 ft 454 kts 330°
2026-04-16 10:57 54.20812 157.45646 31255 ft 454 kts 330°
2026-04-16 10:57 54.23544 157.42956 31520 ft 453 kts 330°
2026-04-16 10:57 54.26275 157.40264 31774 ft 453 kts 330°
2026-04-16 10:58 54.28123 157.38436 31960 ft 453 kts 330°
2026-04-16 10:58 54.30807 157.35769 32186 ft 453 kts 330°
2026-04-16 10:58 54.33570 157.33014 32423 ft 453 kts 330°
2026-04-16 10:58 54.36286 157.30301 32653 ft 453 kts 330°
2026-04-16 10:59 54.38969 157.27622 32886 ft 453 kts 330°
2026-04-16 10:59 54.41690 157.24905 33109 ft 452 kts 329°
2026-04-16 10:59 54.44413 157.22183 33334 ft 452 kts 329°
2026-04-16 10:59 54.47134 157.19455 33551 ft 452 kts 329°
2026-04-16 11:00 54.49853 157.16726 33765 ft 452 kts 329°
2026-04-16 11:00 54.52566 157.13994 33975 ft 452 kts 329°
2026-04-16 11:00 54.55277 157.11258 34153 ft 452 kts 329°
2026-04-16 11:00 54.57990 157.08516 34313 ft 452 kts 329°
2026-04-16 11:01 54.60703 157.05765 34470 ft 452 kts 329°
2026-04-16 11:01 54.63419 157.03007 34615 ft 452 kts 329°
2026-04-16 11:01 54.66134 157.00255 34749 ft 452 kts 329°
2026-04-16 11:01 54.68847 156.97502 34877 ft 453 kts 329°
2026-04-16 11:02 54.71564 156.94747 35005 ft 453 kts 329°
2026-04-16 11:02 54.74281 156.91993 35136 ft 453 kts 329°
2026-04-16 11:02 54.77000 156.89231 35262 ft 453 kts 329°
2026-04-16 11:02 54.79709 156.86464 35387 ft 453 kts 329°
2026-04-16 11:03 54.82386 156.83721 35511 ft 453 kts 329°
2026-04-16 11:03 54.85101 156.80935 35636 ft 453 kts 329°
2026-04-16 11:03 54.90524 156.75353 35882 ft 453 kts 329°
2026-04-16 11:04 54.93233 156.72568 36005 ft 453 kts 329°
2026-04-16 11:04 54.95945 156.69783 36131 ft 452 kts 329°
2026-04-16 11:04 54.98657 156.66991 36246 ft 452 kts 329°
2026-04-16 11:04 55.01356 156.64190 36368 ft 451 kts 329°
2026-04-16 11:05 55.04043 156.61388 36490 ft 451 kts 329°
2026-04-16 11:05 55.06734 156.58579 36617 ft 450 kts 329°
2026-04-16 11:05 55.09411 156.55786 36736 ft 448 kts 329°
2026-04-16 11:05 55.12087 156.52994 36889 ft 446 kts 329°
2026-04-16 11:06 55.14746 156.50217 36994 ft 445 kts 329°
2026-04-16 11:06 55.20079 156.44659 37014 ft 447 kts 329°
2026-04-16 11:07 55.25443 156.39054 37015 ft 450 kts 329°
2026-04-16 11:07 55.30792 156.33433 37018 ft 452 kts 329°
2026-04-16 11:08 55.36239 156.27695 37018 ft 455 kts 329°
2026-04-16 11:08 55.41642 156.21975 37026 ft 457 kts 329°
2026-04-16 11:09 55.47099 156.16144 37030 ft 460 kts 329°
2026-04-16 11:09 55.52575 156.10277 37030 ft 462 kts 329°
2026-04-16 11:10 55.58083 156.04378 37029 ft 463 kts 329°
2026-04-16 11:10 55.63610 155.98429 37031 ft 465 kts 329°
2026-04-16 11:11 55.69101 155.92481 37035 ft 466 kts 328°
2026-04-16 11:11 55.74639 155.86461 37036 ft 467 kts 328°
2026-04-16 11:12 55.80196 155.80425 37041 ft 468 kts 329°
2026-04-16 11:12 55.85764 155.74355 37045 ft 469 kts 328°
2026-04-16 11:13 55.90919 155.68697 37042 ft 469 kts 328°
2026-04-16 11:13 55.96449 155.62619 37057 ft 469 kts 328°
2026-04-16 11:14 56.02006 155.56492 37051 ft 469 kts 328°
2026-04-16 11:14 56.07559 155.50347 37059 ft 470 kts 328°
2026-04-16 11:15 56.13114 155.44180 37056 ft 470 kts 328°
2026-04-16 11:15 56.18677 155.37989 37061 ft 470 kts 328°
2026-04-16 11:16 56.24250 155.31841 37067 ft 470 kts 329°
2026-04-16 11:16 56.29803 155.25774 37074 ft 470 kts 329°
2026-04-16 11:17 56.35392 155.19642 37077 ft 470 kts 329°
2026-04-16 11:17 56.40979 155.13461 37087 ft 470 kts 329°
2026-04-16 11:18 56.46517 155.07302 37086 ft 471 kts 329°
2026-04-16 11:18 56.52133 155.01061 37090 ft 471 kts 328°
2026-04-16 11:19 56.57603 154.94954 37079 ft 447 kts 328°
2026-04-16 11:19 56.62796 154.89129 37093 ft 437 kts 328°
2026-04-16 11:20 56.67984 154.83298 37033 ft 439 kts 328°
2026-04-16 11:20 56.70589 154.80364 36411 ft 441 kts 328°
2026-04-16 11:20 56.73178 154.77442 36151 ft 435 kts 328°
2026-04-16 11:21 56.78328 154.71610 36095 ft 438 kts 328°
2026-04-16 11:21 56.83532 154.65699 36105 ft 443 kts 328°
2026-04-16 11:22 56.88786 154.59703 36098 ft 444 kts 328°
2026-04-16 11:22 56.93973 154.53760 36104 ft 441 kts 328°
2026-04-16 11:23 56.99191 154.47773 36122 ft 443 kts 328°
2026-04-16 11:23 57.04451 154.41727 36128 ft 443 kts 328°
2026-04-16 11:24 57.09672 154.35695 36126 ft 443 kts 328°
2026-04-16 11:24 57.14847 154.29694 36124 ft 443 kts 328°
2026-04-16 11:25 57.20060 154.23642 36134 ft 443 kts 328°
2026-04-16 11:25 57.25259 154.17543 36134 ft 442 kts 327°
2026-04-16 11:26 57.30429 154.11369 36143 ft 442 kts 327°
2026-04-16 11:26 57.35595 154.05171 36142 ft 442 kts 327°
2026-04-16 11:27 57.40767 153.98978 36146 ft 442 kts 327°
2026-04-16 11:27 57.45931 153.92772 36146 ft 442 kts 327°
2026-04-16 11:28 57.51098 153.86542 36144 ft 443 kts 327°
2026-04-16 11:28 57.56268 153.80306 36149 ft 443 kts 327°
2026-04-16 11:29 57.61444 153.74043 36158 ft 443 kts 327°
2026-04-16 11:29 57.66607 153.67750 36163 ft 443 kts 327°
2026-04-16 11:30 57.71736 153.61475 36159 ft 444 kts 327°
2026-04-16 11:30 57.76905 153.55126 36164 ft 445 kts 327°
2026-04-16 11:31 57.82085 153.48760 36166 ft 445 kts 327°
2026-04-16 11:31 57.87268 153.42407 36171 ft 445 kts 327°
2026-04-16 11:32 57.92451 153.36037 36165 ft 445 kts 327°
2026-04-16 11:32 57.97626 153.29646 36170 ft 445 kts 327°
2026-04-16 11:33 58.02797 153.23219 36176 ft 445 kts 327°
2026-04-16 11:33 58.07968 153.16766 36176 ft 445 kts 327°
2026-04-16 11:34 58.13094 153.10342 36174 ft 445 kts 327°
2026-04-16 11:34 58.18260 153.03864 36174 ft 445 kts 327°
2026-04-16 11:35 58.23377 152.97234 36175 ft 445 kts 325°
2026-04-16 11:35 58.28410 152.90405 36174 ft 445 kts 325°
2026-04-16 11:36 58.33445 152.83560 36177 ft 445 kts 325°
2026-04-16 11:36 58.38499 152.76770 36177 ft 445 kts 325°
2026-04-16 11:37 58.43520 152.70026 36174 ft 444 kts 325°
2026-04-16 11:37 58.48568 152.63202 36175 ft 444 kts 325°
2026-04-16 11:38 58.53603 152.56341 36174 ft 444 kts 325°
2026-04-16 11:38 58.58640 152.49475 36174 ft 444 kts 326°
2026-04-16 11:39 58.63757 152.42848 36177 ft 444 kts 327°
2026-04-16 11:39 58.68931 152.36354 36170 ft 444 kts 327°
2026-04-16 11:40 58.74085 152.29792 36171 ft 444 kts 327°
2026-04-16 11:40 58.79181 152.23182 36173 ft 444 kts 326°
2026-04-16 11:41 58.84295 152.16467 36172 ft 444 kts 326°
2026-04-16 11:41 58.89410 152.09759 36164 ft 444 kts 326°
2026-04-16 11:42 58.94534 152.03035 36160 ft 445 kts 326°
2026-04-16 11:42 58.99652 151.96302 36161 ft 445 kts 326°
2026-04-16 11:43 59.04766 151.89539 36166 ft 445 kts 326°
2026-04-16 11:43 59.09872 151.82742 36161 ft 445 kts 326°
2026-04-16 11:44 59.14993 151.75985 36159 ft 445 kts 326°
2026-04-16 11:44 59.20113 151.69223 36152 ft 444 kts 326°
2026-04-16 11:45 59.24370 151.63582 36152 ft 444 kts 326°
2026-04-16 11:45 59.29479 151.56775 36147 ft 444 kts 326°
2026-04-16 11:46 59.34594 151.49955 36149 ft 445 kts 326°
2026-04-16 11:46 59.39710 151.43120 36137 ft 445 kts 326°
2026-04-16 11:47 59.44822 151.36261 36144 ft 445 kts 326°
2026-04-16 11:47 59.49930 151.29383 36138 ft 445 kts 326°
2026-04-16 11:48 59.55045 151.22486 36137 ft 445 kts 326°
2026-04-16 11:48 59.60119 151.15598 36136 ft 446 kts 326°
2026-04-16 11:49 59.65216 151.08621 36130 ft 446 kts 326°
2026-04-16 11:49 59.70276 151.01523 36131 ft 446 kts 325°
2026-04-16 11:50 59.75318 150.94357 36131 ft 446 kts 325°
2026-04-16 11:50 59.80364 150.87189 36113 ft 446 kts 325°
2026-04-16 11:51 59.85420 150.80026 36108 ft 446 kts 325°
2026-04-16 11:51 59.90455 150.72835 36103 ft 446 kts 322°
2026-04-16 11:52 59.95020 150.64447 36107 ft 446 kts 317°
2026-04-16 11:52 59.99513 150.55860 36109 ft 447 kts 317°
2026-04-16 11:53 60.03998 150.47270 36109 ft 447 kts 317°
2026-04-16 11:53 60.08478 150.38652 36114 ft 447 kts 317°
2026-04-16 11:54 60.12925 150.30062 36118 ft 447 kts 317°
2026-04-16 11:54 60.17392 150.21388 36121 ft 447 kts 317°
2026-04-16 11:55 60.21853 150.12683 36122 ft 447 kts 317°
2026-04-16 11:55 60.26309 150.03944 36128 ft 447 kts 317°
2026-04-16 11:56 60.30768 149.95185 36127 ft 447 kts 317°
2026-04-16 11:56 60.35216 149.86416 36123 ft 447 kts 317°
2026-04-16 11:57 60.39661 149.77641 36128 ft 447 kts 317°
2026-04-16 11:57 60.44083 149.68889 36131 ft 447 kts 317°
2026-04-16 11:58 60.48515 149.60046 36131 ft 447 kts 316°
2026-04-16 11:58 60.52940 149.51175 36119 ft 447 kts 316°
2026-04-16 11:59 60.57367 149.42287 36140 ft 447 kts 317°
2026-04-16 11:59 60.61783 149.33394 36128 ft 447 kts 316°
2026-04-16 12:00 60.66188 149.24462 36121 ft 447 kts 316°
2026-04-16 12:00 60.70591 149.15502 36126 ft 447 kts 316°
2026-04-16 12:01 60.74986 149.06527 36116 ft 447 kts 316°
2026-04-16 12:01 60.79352 148.97586 36107 ft 447 kts 316°
2026-04-16 12:02 60.85942 148.84056 36113 ft 447 kts 316°
2026-04-16 12:02 60.90322 148.74993 36097 ft 447 kts 316°
2026-04-16 12:03 60.94703 148.65914 36106 ft 447 kts 316°
2026-04-16 12:03 60.99074 148.56815 36102 ft 447 kts 316°
2026-04-16 12:04 61.03443 148.47661 36100 ft 448 kts 316°
2026-04-16 12:04 61.07810 148.38464 36114 ft 449 kts 316°
2026-04-16 12:05 61.12179 148.29234 36100 ft 449 kts 316°
2026-04-16 12:05 61.16541 148.19979 36115 ft 450 kts 316°
2026-04-16 12:06 61.20909 148.10696 36103 ft 450 kts 316°
2026-04-16 12:06 61.25277 148.01378 36089 ft 450 kts 316°
2026-04-16 12:07 61.29639 147.92009 36092 ft 451 kts 315°
2026-04-16 12:07 61.33996 147.82598 36098 ft 452 kts 315°
2026-04-16 12:08 61.38323 147.73218 36096 ft 452 kts 315°
2026-04-16 12:08 61.42675 147.63741 36096 ft 452 kts 315°
2026-04-16 12:09 61.47020 147.54222 36103 ft 452 kts 315°
2026-04-16 12:09 61.51352 147.44661 36098 ft 452 kts 315°
2026-04-16 12:10 61.55681 147.35085 36105 ft 452 kts 315°
2026-04-16 12:10 61.60006 147.25479 36103 ft 452 kts 315°
2026-04-16 12:11 61.64325 147.15865 36103 ft 452 kts 315°
2026-04-16 12:11 61.68646 147.06204 36094 ft 453 kts 315°
2026-04-16 12:12 61.72964 146.96505 36097 ft 454 kts 314°
2026-04-16 12:12 61.77273 146.86765 36107 ft 454 kts 314°
2026-04-16 12:13 61.81577 146.76984 36115 ft 454 kts 314°
2026-04-16 12:13 61.85874 146.67191 36123 ft 454 kts 314°
2026-04-16 12:14 61.90169 146.57361 36110 ft 454 kts 314°
2026-04-16 12:14 61.94459 146.47496 36115 ft 455 kts 314°
2026-04-16 12:15 61.98756 146.37587 36118 ft 456 kts 314°
2026-04-16 12:15 62.03019 146.27708 36121 ft 456 kts 313°
2026-04-16 12:16 62.07304 146.17727 36124 ft 456 kts 313°
2026-04-16 12:16 62.11585 146.07701 36117 ft 456 kts 313°
2026-04-16 12:17 62.15858 145.97637 36115 ft 457 kts 313°
2026-04-16 12:17 62.20134 145.87557 36120 ft 457 kts 313°
2026-04-16 12:18 62.24411 145.77475 36124 ft 457 kts 313°
2026-04-16 12:18 62.28684 145.67356 36143 ft 457 kts 313°
2026-04-16 12:19 62.32948 145.57191 36135 ft 458 kts 313°
2026-04-16 12:19 62.37178 145.47063 36136 ft 458 kts 312°
2026-04-16 12:20 62.41427 145.36827 36137 ft 458 kts 312°
2026-04-16 12:20 62.45666 145.26559 36133 ft 458 kts 312°
2026-04-16 12:21 62.49906 145.16263 36134 ft 458 kts 312°
2026-04-16 12:21 62.54132 145.05923 36129 ft 459 kts 311°
2026-04-16 12:22 62.58351 144.95542 36130 ft 459 kts 311°
2026-04-16 12:22 62.62570 144.85111 36125 ft 459 kts 311°
2026-04-16 12:23 62.66776 144.74653 36127 ft 459 kts 311°
2026-04-16 12:23 62.70982 144.64179 36129 ft 460 kts 311°
2026-04-16 12:24 62.75184 144.53640 36134 ft 460 kts 311°
2026-04-16 12:24 62.79373 144.43083 36130 ft 460 kts 311°
2026-04-16 12:25 62.83565 144.32487 36128 ft 460 kts 310°
2026-04-16 12:25 62.87741 144.21864 36124 ft 460 kts 310°
2026-04-16 12:26 62.91916 144.11207 36121 ft 460 kts 310°
2026-04-16 12:26 62.96055 144.00579 36121 ft 460 kts 310°
2026-04-16 12:27 63.00211 143.89853 36127 ft 461 kts 310°
2026-04-16 12:27 63.04361 143.79089 36125 ft 461 kts 310°
2026-04-16 12:28 63.08505 143.68297 36124 ft 461 kts 310°
2026-04-16 12:28 63.12640 143.57490 36128 ft 461 kts 310°
2026-04-16 12:29 63.16770 143.46644 36133 ft 461 kts 309°
2026-04-16 12:29 63.20889 143.35759 36134 ft 461 kts 309°
2026-04-16 12:30 63.24997 143.24845 36136 ft 461 kts 309°
2026-04-16 12:30 63.28676 143.13232 36136 ft 460 kts 300°
2026-04-16 12:31 63.32007 143.01094 36136 ft 460 kts 300°
2026-04-16 12:31 63.35339 142.88923 36136 ft 460 kts 300°
2026-04-16 12:32 63.38102 142.78796 36142 ft 460 kts 300°
2026-04-16 12:32 63.41417 142.66569 36139 ft 460 kts 300°
2026-04-16 12:33 63.44726 142.54329 36142 ft 460 kts 300°
2026-04-16 12:33 63.48027 142.42053 36136 ft 460 kts 300°
2026-04-16 12:34 63.51309 142.29744 36138 ft 460 kts 300°
2026-04-16 12:34 63.54582 142.17407 36139 ft 460 kts 300°
2026-04-16 12:35 63.57846 142.05050 36144 ft 460 kts 299°
2026-04-16 12:35 63.61095 141.92662 36146 ft 460 kts 299°
2026-04-16 12:36 63.64338 141.80247 36145 ft 460 kts 299°
2026-04-16 12:36 63.67550 141.67889 36174 ft 460 kts 299°
2026-04-16 12:37 63.70760 141.55419 36168 ft 460 kts 298°
2026-04-16 12:37 63.73967 141.42943 36180 ft 460 kts 298°
2026-04-16 12:38 63.77170 141.30427 36176 ft 460 kts 298°
2026-04-16 12:38 63.80347 141.17882 36184 ft 460 kts 298°
2026-04-16 12:39 63.83516 141.05310 36186 ft 460 kts 298°
2026-04-16 12:39 63.86673 140.92708 36199 ft 460 kts 298°
2026-04-16 12:40 63.89821 140.80092 36219 ft 460 kts 297°
2026-04-16 12:40 63.92966 140.67420 36238 ft 460 kts 297°
2026-04-16 12:41 63.96082 140.54806 36222 ft 460 kts 297°
2026-04-16 12:41 63.99218 140.41991 36228 ft 460 kts 297°
2026-04-16 12:42 64.02304 140.29310 36248 ft 460 kts 297°
2026-04-16 12:42 64.05396 140.16516 36239 ft 460 kts 297°
2026-04-16 12:43 64.08488 140.03686 36254 ft 461 kts 296°
2026-04-16 12:43 64.11572 139.90831 36245 ft 461 kts 296°
2026-04-16 12:44 64.14636 139.77925 36246 ft 461 kts 296°
2026-04-16 12:44 64.17687 139.64998 36241 ft 461 kts 296°
2026-04-16 12:45 64.20735 139.52040 36246 ft 461 kts 296°
2026-04-16 12:45 64.23774 139.39049 36260 ft 462 kts 295°
2026-04-16 12:46 64.26798 139.26022 36237 ft 462 kts 295°
2026-04-16 12:46 64.29806 139.12978 36232 ft 462 kts 295°
2026-04-16 12:47 64.32814 138.99895 36234 ft 462 kts 295°
2026-04-16 12:47 64.35807 138.86790 36219 ft 462 kts 295°
2026-04-16 12:48 64.38784 138.73656 36220 ft 461 kts 295°
2026-04-16 12:48 64.41745 138.60489 36224 ft 461 kts 295°
2026-04-16 12:49 64.44683 138.47403 36217 ft 461 kts 294°
2026-04-16 12:49 64.47620 138.34203 36211 ft 461 kts 294°
2026-04-16 12:50 64.50539 138.20962 36209 ft 461 kts 294°
2026-04-16 12:50 64.53453 138.07707 36207 ft 461 kts 294°
2026-04-16 12:51 64.56364 137.94451 36225 ft 461 kts 294°
2026-04-16 12:51 64.59255 137.81149 36217 ft 460 kts 294°
2026-04-16 12:52 64.62129 137.67804 36215 ft 460 kts 294°
2026-04-16 12:52 64.64995 137.54455 36212 ft 460 kts 293°
2026-04-16 12:53 64.67838 137.41079 36220 ft 460 kts 293°
2026-04-16 12:53 64.70670 137.27678 36217 ft 459 kts 292°
2026-04-16 12:54 64.73479 137.14279 36215 ft 460 kts 293°
2026-04-16 12:54 64.76378 137.00764 36217 ft 469 kts 295°
2026-04-16 12:55 64.79464 136.87107 36186 ft 478 kts 295°
2026-04-16 12:55 64.82573 136.73364 36180 ft 477 kts 295°
2026-04-16 12:56 64.84090 136.66571 36176 ft 464 kts 294°
2026-04-16 12:56 64.85564 136.59884 36183 ft 459 kts 294°
2026-04-16 12:56 64.88462 136.46529 36198 ft 457 kts 294°
2026-04-16 12:57 64.91342 136.33192 36182 ft 457 kts 294°
2026-04-16 12:57 64.94227 136.19843 36181 ft 457 kts 294°
2026-04-16 12:58 64.97103 136.06491 36184 ft 457 kts 294°
2026-04-16 12:58 64.99966 135.93072 36195 ft 457 kts 293°
2026-04-16 12:59 65.02805 135.79612 36197 ft 457 kts 293°
2026-04-16 13:00 65.07039 135.59457 36218 ft 458 kts 293°
2026-04-16 13:00 65.09860 135.45938 36215 ft 457 kts 292°
2026-04-16 13:01 65.12668 135.32368 36215 ft 458 kts 292°
2026-04-16 13:01 65.15482 135.18790 36214 ft 458 kts 292°
2026-04-16 13:02 65.18282 135.05208 36203 ft 457 kts 292°
2026-04-16 13:02 65.21068 134.91589 36202 ft 457 kts 292°
2026-04-16 13:03 65.23829 134.77937 36208 ft 457 kts 292°
2026-04-16 13:03 65.26581 134.64254 36207 ft 457 kts 292°
2026-04-16 13:04 65.29314 134.50543 36222 ft 457 kts 292°
2026-04-16 13:04 65.32031 134.36791 36222 ft 457 kts 291°
2026-04-16 13:05 65.34731 134.23020 36221 ft 457 kts 291°
2026-04-16 13:05 65.37422 134.09232 36232 ft 457 kts 291°
2026-04-16 13:06 65.40098 133.95402 36220 ft 457 kts 291°
2026-04-16 13:06 65.42766 133.81536 36207 ft 457 kts 291°
2026-04-16 13:07 65.45421 133.67653 36205 ft 457 kts 291°
2026-04-16 13:07 65.48063 133.53740 36208 ft 457 kts 291°
2026-04-16 13:08 65.50683 133.39791 36230 ft 457 kts 290°
2026-04-16 13:08 65.53280 133.25900 36212 ft 457 kts 290°
2026-04-16 13:09 65.55880 133.11882 36212 ft 458 kts 290°
2026-04-16 13:09 65.58477 132.97845 36208 ft 458 kts 290°
2026-04-16 13:10 65.61062 132.83781 36205 ft 458 kts 290°
2026-04-16 13:10 65.63619 132.69669 36205 ft 458 kts 290°
2026-04-16 13:11 65.66165 132.55547 36228 ft 458 kts 290°
2026-04-16 13:11 65.68707 132.41379 36210 ft 458 kts 290°
2026-04-16 13:12 65.71238 132.27184 36209 ft 458 kts 289°
2026-04-16 13:12 65.73752 132.12964 36203 ft 458 kts 289°
2026-04-16 13:13 65.76254 131.98705 36200 ft 458 kts 289°
2026-04-16 13:13 65.78754 131.84414 36232 ft 458 kts 289°
2026-04-16 13:14 65.81238 131.70108 36213 ft 458 kts 289°
2026-04-16 13:14 65.83708 131.55749 36203 ft 459 kts 289°
2026-04-16 13:15 65.86157 131.41368 36209 ft 459 kts 289°
2026-04-16 13:15 65.88583 131.27040 36210 ft 459 kts 288°
2026-04-16 13:16 65.91009 131.12613 36208 ft 459 kts 288°
2026-04-16 13:16 65.93425 130.98156 36239 ft 459 kts 288°
2026-04-16 13:17 65.95827 130.83660 36228 ft 459 kts 288°
2026-04-16 13:17 65.98213 130.69136 36241 ft 459 kts 288°
2026-04-16 13:18 66.00586 130.54578 36239 ft 459 kts 288°
2026-04-16 13:18 66.02943 130.40008 36238 ft 459 kts 288°
2026-04-16 13:19 66.05289 130.25424 36248 ft 459 kts 287°
2026-04-16 13:19 66.07621 130.10792 36268 ft 459 kts 287°
2026-04-16 13:20 66.09549 129.98604 36259 ft 459 kts 287°
2026-04-16 13:20 66.11851 129.83926 36255 ft 459 kts 287°
2026-04-16 13:21 66.14143 129.69226 36265 ft 459 kts 287°
2026-04-16 13:21 66.16427 129.54501 36258 ft 458 kts 287°
2026-04-16 13:22 66.18689 129.39775 36252 ft 458 kts 287°
2026-04-16 13:22 66.20951 129.25025 36264 ft 458 kts 287°
2026-04-16 13:23 66.23201 129.10277 36259 ft 458 kts 287°
2026-04-16 13:23 66.25362 128.95442 36250 ft 456 kts 284°
2026-04-16 13:24 66.27152 128.80370 36246 ft 455 kts 281°
2026-04-16 13:24 66.28774 128.65200 36229 ft 454 kts 281°
2026-04-16 13:25 66.30425 128.50026 36260 ft 455 kts 281°
2026-04-16 13:25 66.32117 128.34863 36243 ft 455 kts 281°
2026-04-16 13:26 66.33792 128.19774 36213 ft 455 kts 281°
2026-04-16 13:26 66.35456 128.04582 36212 ft 455 kts 281°
2026-04-16 13:27 66.37105 127.89359 36203 ft 455 kts 281°
2026-04-16 13:27 66.38730 127.74109 36201 ft 455 kts 281°
2026-04-16 13:28 66.40341 127.58863 36212 ft 454 kts 281°
2026-04-16 13:28 66.41939 127.43601 36201 ft 455 kts 281°
2026-04-16 13:29 66.43520 127.28289 36188 ft 455 kts 280°
2026-04-16 13:29 66.45089 127.12980 36181 ft 454 kts 280°
2026-04-16 13:30 66.46644 126.97682 36178 ft 454 kts 280°
2026-04-16 13:30 66.48181 126.82346 36179 ft 454 kts 280°
2026-04-16 13:31 66.49706 126.67011 36170 ft 453 kts 280°
2026-04-16 13:31 66.51215 126.51668 36165 ft 453 kts 279°
2026-04-16 13:32 66.52699 126.36304 36167 ft 453 kts 279°
2026-04-16 13:32 66.54165 126.20927 36167 ft 453 kts 279°
2026-04-16 13:33 66.55630 126.05527 36180 ft 453 kts 279°
2026-04-16 13:33 66.57075 125.90137 36171 ft 452 kts 279°
2026-04-16 13:34 66.58498 125.74809 36195 ft 453 kts 279°
2026-04-16 13:34 66.59908 125.59377 36183 ft 453 kts 279°
2026-04-16 13:35 66.61294 125.43911 36186 ft 453 kts 278°
2026-04-16 13:35 66.62677 125.28423 36189 ft 453 kts 278°
2026-04-16 13:36 66.64044 125.12911 36183 ft 453 kts 278°
2026-04-16 13:36 66.65402 124.97390 36205 ft 453 kts 278°
2026-04-16 13:37 66.66738 124.81895 36195 ft 452 kts 278°
2026-04-16 13:37 66.68059 124.66425 36192 ft 451 kts 278°
2026-04-16 13:38 66.69353 124.51052 36192 ft 451 kts 278°
2026-04-16 13:38 66.70632 124.35521 36189 ft 451 kts 278°
2026-04-16 13:39 66.71900 124.19990 36199 ft 452 kts 278°
2026-04-16 13:39 66.73169 124.04425 36208 ft 452 kts 278°
2026-04-16 13:40 66.74410 123.88831 36229 ft 452 kts 277°
2026-04-16 13:40 66.75631 123.73225 36213 ft 452 kts 277°
2026-04-16 13:41 66.76849 123.57605 36210 ft 452 kts 277°
2026-04-16 13:41 66.78040 123.41943 36220 ft 452 kts 277°
2026-04-16 13:42 66.78464 123.26208 36217 ft 446 kts 266°
2026-04-16 13:42 66.78490 123.10474 36227 ft 446 kts 266°
2026-04-16 13:43 66.78511 122.94742 36247 ft 446 kts 266°
2026-04-16 13:43 66.78512 122.79108 36242 ft 446 kts 266°
2026-04-16 13:44 66.78502 122.63376 36240 ft 446 kts 266°
2026-04-16 13:44 66.78477 122.47651 36235 ft 446 kts 266°
2026-04-16 13:45 66.78430 122.31953 36237 ft 446 kts 266°
2026-04-16 13:45 66.78361 122.16242 36232 ft 446 kts 266°
2026-04-16 13:46 66.78286 122.00524 36229 ft 446 kts 266°
2026-04-16 13:46 66.78198 121.84803 36252 ft 446 kts 266°
2026-04-16 13:47 66.78086 121.69082 36243 ft 446 kts 265°
2026-04-16 13:47 66.77958 121.53464 36238 ft 446 kts 265°
2026-04-16 13:48 66.77824 121.37740 36238 ft 446 kts 265°
2026-04-16 13:48 66.77679 121.22032 36244 ft 446 kts 265°
2026-04-16 13:49 66.77507 121.06313 36245 ft 446 kts 265°
2026-04-16 13:49 66.77320 120.90618 36236 ft 445 kts 265°
2026-04-16 13:50 66.77116 120.74946 36250 ft 445 kts 265°
2026-04-16 13:50 66.76901 120.59249 36248 ft 445 kts 265°
2026-04-16 13:51 66.76664 120.43591 36241 ft 445 kts 265°
2026-04-16 13:51 66.76412 120.27925 36238 ft 445 kts 265°
2026-04-16 13:52 66.76153 120.12264 36236 ft 445 kts 265°
2026-04-16 13:52 66.75885 119.96723 36237 ft 445 kts 264°
2026-04-16 13:53 66.75589 119.81087 36233 ft 445 kts 264°
2026-04-16 13:53 66.75275 119.65452 36249 ft 445 kts 264°
2026-04-16 13:54 66.74938 119.49827 36248 ft 445 kts 264°
2026-04-16 13:54 66.74508 119.34220 36244 ft 444 kts 263°
2026-04-16 13:55 66.73993 119.18646 36236 ft 444 kts 263°
2026-04-16 13:55 66.73460 119.03098 36233 ft 444 kts 263°
2026-04-16 13:56 66.72937 118.87547 36228 ft 444 kts 263°
2026-04-16 13:56 66.72407 118.72005 36227 ft 444 kts 262°
2026-04-16 13:57 66.71857 118.56487 36237 ft 444 kts 262°
2026-04-16 13:57 66.71284 118.40945 36237 ft 444 kts 262°
2026-04-16 13:58 66.70411 118.17746 36232 ft 444 kts 262°
2026-04-16 13:58 66.69808 118.02221 36242 ft 444 kts 262°
2026-04-16 13:59 66.69323 117.86678 36235 ft 446 kts 272°
2026-04-16 13:59 66.69984 117.71095 36239 ft 447 kts 274°
2026-04-16 14:00 66.70655 117.55463 36247 ft 447 kts 274°
2026-04-16 14:00 66.71313 117.39835 36242 ft 447 kts 274°
2026-04-16 14:01 66.71953 117.24299 36241 ft 447 kts 274°
2026-04-16 14:01 66.72581 117.08662 36239 ft 447 kts 274°
2026-04-16 14:02 66.73193 116.93017 36239 ft 447 kts 274°
2026-04-16 14:02 66.73784 116.77364 36241 ft 447 kts 273°
2026-04-16 14:03 66.74358 116.61706 36233 ft 447 kts 273°
2026-04-16 14:03 66.74922 116.46049 36237 ft 447 kts 273°
2026-04-16 14:04 66.75473 116.30376 36241 ft 447 kts 273°
2026-04-16 14:04 66.76011 116.14682 36245 ft 447 kts 273°
2026-04-16 14:05 66.76522 115.99010 36243 ft 447 kts 272°
2026-04-16 14:05 66.77016 115.83335 36243 ft 447 kts 272°
2026-04-16 14:06 66.77500 115.67641 36254 ft 447 kts 272°
2026-04-16 14:06 66.77966 115.52057 36248 ft 446 kts 272°
2026-04-16 14:07 66.78428 115.36368 36240 ft 446 kts 272°
2026-04-16 14:07 66.78869 115.20694 36238 ft 446 kts 272°
2026-04-16 14:08 66.79282 115.05025 36238 ft 445 kts 272°
2026-04-16 14:08 66.79614 114.91993 36240 ft 445 kts 272°
2026-04-16 14:09 66.80009 114.76311 36252 ft 445 kts 272°
2026-04-16 14:09 66.80394 114.60637 36236 ft 445 kts 272°
2026-04-16 14:10 66.80760 114.44954 36235 ft 445 kts 271°
2026-04-16 14:10 66.81109 114.29263 36234 ft 445 kts 271°
2026-04-16 14:11 66.81438 114.13551 36233 ft 445 kts 271°
2026-04-16 14:11 66.81748 113.97867 36231 ft 445 kts 271°
2026-04-16 14:12 66.82045 113.82280 36238 ft 445 kts 271°
2026-04-16 14:12 66.82331 113.66591 36228 ft 445 kts 271°
2026-04-16 14:13 66.82605 113.50787 36226 ft 445 kts 271°
2026-04-16 14:13 66.82855 113.35185 36225 ft 445 kts 271°
2026-04-16 14:14 66.83095 113.19473 36225 ft 445 kts 270°
2026-04-16 14:14 66.83311 113.03749 36226 ft 445 kts 270°
2026-04-16 14:15 66.83513 112.88022 36236 ft 445 kts 270°
2026-04-16 14:15 66.83705 112.72289 36228 ft 445 kts 270°
2026-04-16 14:16 66.83883 112.56548 36219 ft 446 kts 270°
2026-04-16 14:16 66.84044 112.40807 36217 ft 445 kts 270°
2026-04-16 14:17 66.84190 112.25068 36211 ft 446 kts 270°
2026-04-16 14:17 66.84318 112.09435 36211 ft 445 kts 270°
2026-04-16 14:18 66.84428 111.93712 36213 ft 445 kts 270°
2026-04-16 14:18 66.84530 111.77985 36207 ft 445 kts 269°
2026-04-16 14:19 66.84618 111.62252 36205 ft 445 kts 269°
2026-04-16 14:19 66.84688 111.46537 36196 ft 445 kts 269°
2026-04-16 14:20 66.84732 111.30812 36193 ft 445 kts 269°
2026-04-16 14:20 66.84748 111.22957 36192 ft 445 kts 269°